Location: Stara Lesna
(49.1528°N, 20.2911°E)
Time: 19:00:43
(UTC+02:00)

BREEZE-M DEB (TANK) - Pass Details

Date: 13 July 2020
Orbit: 428 x 13238 km, 46.0° (Epoch: 10 August)

Event Time Altitude Azimuth Distance (km) Brightness Sun altitude
Rises 00:50:51 0° 243° (WSW) 7,882 8.4 -19.0°
Reaches altitude 10° 00:58:05 10° 241° (WSW) 5,102 7.4 -19.0°
Maximum altitude 01:08:18 51° 170° (S) 1,156 4.0 -18.9°
Drops below altitude 10° 01:12:02 10° 92° (E) 1,915 5.6 -18.8°
Sets 01:13:34 0° 86° (E) 2,592 6.4 -18.8°
